2015-12-22 00:02:59 r, 13.92m,0000000240Hz,0000000000c,0000000.000s, 011.6C,00002195
2015-12-22 00:13:00 r, 13.90m,0000000244Hz,0000000000c,0000000.000s, 011.6C,00002195
2015-12-22 00:22:59 r, 14.16m,0000000193Hz,0000000000c,0000000.000s, 011.2C,00002195
2015-12-22 00:32:59 r, 13.83m,0000000261Hz,0000000000c,0000000.000s, 011.2C,00002195
2015-12-22 00:42:59 r, 13.66m,0000000304Hz,0000000000c,0000000.000s, 011.2C,00002195
2015-12-22 00:52:59 r, 13.63m,0000000315Hz,0000000000c,0000000.000s, 010.9C,00002195
2015-12-22 01:02:59 r, 13.47m,0000000365Hz,0000000000c,0000000.000s, 011.2C,00002195
2015-12-22 01:12:58 r, 13.50m,0000000355Hz,0000000000c,0000000.000s, 011.2C,00002195
2015-12-22 01:22:58 r, 13.34m,0000000409Hz,0000000000c,0000000.000s, 011.2C,00002195
2015-12-22 01:32:58 r, 13.49m,0000000356Hz,0000000000c,0000000.000s, 011.6C,00002195
2015-12-22 01:42:59 r, 13.54m,0000000342Hz,0000000000c,0000000.000s, 011.6C,00002195
2015-12-22 01:53:00 r, 13.62m,0000000317Hz,0000000000c,0000000.000s, 011.2C,00002195
2015-12-22 02:02:59 r, 13.68m,0000000301Hz,0000000000c,0000000.000s, 011.2C,00002195
2015-12-22 02:12:58 r, 13.67m,0000000302Hz,0000000000c,0000000.000s, 011.2C,00002195
2015-12-22 02:23:00 r, 13.74m,0000000285Hz,0000000000c,0000000.000s, 011.2C,00002195
2015-12-22 02:32:59 r, 13.66m,0000000307Hz,0000000000c,0000000.000s, 011.2C,00002195
2015-12-22 02:43:00 r, 13.71m,0000000292Hz,0000000000c,0000000.000s, 011.2C,00002195
2015-12-22 02:52:59 r, 13.86m,0000000255Hz,0000000000c,0000000.000s, 011.2C,00002195
2015-12-22 03:02:58 r, 13.76m,0000000280Hz,0000000000c,0000000.000s, 011.2C,00002195
2015-12-22 03:12:58 r, 13.72m,0000000289Hz,0000000000c,0000000.000s, 011.2C,00002195
2015-12-22 03:22:59 r, 13.82m,0000000264Hz,0000000000c,0000000.000s, 010.9C,00002195
2015-12-22 03:32:59 r, 13.65m,0000000309Hz,0000000000c,0000000.000s, 010.9C,00002195
2015-12-22 03:42:58 r, 13.78m,0000000275Hz,0000000000c,0000000.000s, 010.9C,00002195
2015-12-22 03:53:00 r, 13.80m,0000000269Hz,0000000000c,0000000.000s, 011.2C,00002195
2015-12-22 04:02:59 r, 13.71m,0000000292Hz,0000000000c,0000000.000s, 010.9C,00002195
2015-12-22 04:12:59 r, 13.79m,0000000270Hz,0000000000c,0000000.000s, 011.2C,00002195
2015-12-22 04:22:58 r, 13.61m,0000000320Hz,0000000000c,0000000.000s, 010.9C,00002195
2015-12-22 04:32:59 r, 13.53m,0000000345Hz,0000000000c,0000000.000s, 011.2C,00002195
2015-12-22 04:42:59 r, 13.63m,0000000315Hz,0000000000c,0000000.000s, 011.2C,00002195
2015-12-22 04:52:58 r, 13.47m,0000000363Hz,0000000000c,0000000.000s, 010.9C,00002195
2015-12-22 05:02:58 r, 13.44m,0000000375Hz,0000000000c,0000000.000s, 011.2C,00002195
2015-12-22 05:12:58 r, 13.44m,0000000372Hz,0000000000c,0000000.000s, 011.2C,00002195
2015-12-22 05:22:58 r, 13.44m,0000000374Hz,0000000000c,0000000.000s, 011.2C,00002195
2015-12-22 05:32:59 r, 13.45m,0000000370Hz,0000000000c,0000000.000s, 011.2C,00002195
2015-12-22 05:42:58 r, 13.52m,0000000346Hz,0000000000c,0000000.000s, 011.6C,00002195
2015-12-22 05:52:59 r, 13.79m,0000000270Hz,0000000000c,0000000.000s, 011.6C,00002195
2015-12-22 06:02:59 r, 13.66m,0000000306Hz,0000000000c,0000000.000s, 011.6C,00002195
2015-12-22 06:12:58 r, 13.64m,0000000310Hz,0000000000c,0000000.000s, 011.2C,00002195
2015-12-22 06:23:00 r, 13.57m,0000000333Hz,0000000000c,0000000.000s, 011.6C,00002195
2015-12-22 06:32:59 r, 13.53m,0000000345Hz,0000000000c,0000000.000s, 011.6C,00002195
2015-12-22 06:42:59 r, 13.45m,0000000371Hz,0000000000c,0000000.000s, 011.6C,00002195
2015-12-22 06:52:58 r, 13.47m,0000000365Hz,0000000000c,0000000.000s, 011.6C,00002195
2015-12-22 07:02:59 r, 13.43m,0000000377Hz,0000000000c,0000000.000s, 011.6C,00002195
2015-12-22 07:12:58 r, 13.38m,0000000397Hz,0000000000c,0000000.000s, 011.9C,00002195
2015-12-22 07:22:59 r, 13.49m,0000000359Hz,0000000000c,0000000.000s, 011.9C,00002195
2015-12-22 07:32:59 r, 13.36m,0000000402Hz,0000000000c,0000000.000s, 011.9C,00002195
2015-12-22 07:42:58 r, 12.95m,0000000588Hz,0000000000c,0000000.000s, 011.9C,00002195
2015-12-22 07:52:59 r, 11.81m,0000001682Hz,0000000000c,0000000.000s, 012.2C,00002195
2015-12-22 08:02:59 r, 10.30m,0000006756Hz,0000000000c,0000000.000s, 012.2C,00002195
2015-12-22 08:12:58 r, 08.87m,0000025210Hz,0000000000c,0000000.000s, 012.2C,00002195
2015-12-22 08:22:58 r, 07.74m,0000071335Hz,0000000000c,0000000.000s, 012.5C,00002195
2015-12-22 08:32:58 r, 06.93m,0000150682Hz,0000000000c,0000000.000s, 012.5C,00002195
2015-12-22 08:42:58 r, 06.38m,0000249157Hz,0000000000c,0000000.000s, 012.2C,00002195
2015-12-22 08:53:00 r, 05.99m,0000357702Hz,0000000000c,0000000.000s, 012.5C,00002195
2015-12-22 09:02:59 r, 00.00m,0000468393Hz,0000000000c,0000000.000s, 012.5C,00002195
2015-12-22 09:12:58 r, 00.00m,0000562426Hz,0000000000c,0000000.000s, 012.8C,00002195
2015-12-22 09:22:58 r, 00.00m,0000562382Hz,0000000000c,0000000.000s, 013.2C,00002195
2015-12-22 09:32:59 r, 00.00m,0000562323Hz,0000000000c,0000000.000s, 013.2C,00002195
2015-12-22 09:42:58 r, 00.00m,0000562488Hz,0000000000c,0000000.000s, 013.5C,00002195
2015-12-22 09:52:59 r, 00.00m,0000562506Hz,0000000000c,0000000.000s, 013.5C,00002195
2015-12-22 10:02:59 r, 00.00m,0000562464Hz,0000000000c,0000000.000s, 013.8C,00002195
2015-12-22 10:12:58 r, 00.00m,0000562639Hz,0000000000c,0000000.000s, 014.1C,00002195
2015-12-22 10:22:59 r, 00.00m,0000562662Hz,0000000000c,0000000.000s, 014.8C,00002195
2015-12-22 10:32:58 r, 00.00m,0000562754Hz,0000000000c,0000000.000s, 015.1C,00002195
2015-12-22 10:42:58 r, 00.00m,0000562768Hz,0000000000c,0000000.000s, 015.4C,00002195
2015-12-22 10:52:58 r, 00.00m,0000562824Hz,0000000000c,0000000.000s, 015.7C,00002195
2015-12-22 11:02:58 r, 00.00m,0000562784Hz,0000000000c,0000000.000s, 015.7C,00002195
2015-12-22 11:12:58 r, 00.00m,0000562959Hz,0000000000c,0000000.000s, 016.1C,00002195
2015-12-22 11:22:58 r, 00.00m,0000563065Hz,0000000000c,0000000.000s, 016.4C,00002195
2015-12-22 11:32:58 r, 00.00m,0000563109Hz,0000000000c,0000000.000s, 016.7C,00002195
2015-12-22 11:42:58 r, 00.00m,0000563070Hz,0000000000c,0000000.000s, 017.0C,00002195
2015-12-22 11:52:58 r, 00.00m,0000563106Hz,0000000000c,0000000.000s, 017.0C,00002195
2015-12-22 12:02:59 r, 00.00m,0000563010Hz,0000000000c,0000000.000s, 017.0C,00002195
2015-12-22 12:13:00 r, 00.00m,0000562971Hz,0000000000c,0000000.000s, 016.7C,00002195
2015-12-22 12:22:58 r, 00.00m,0000562905Hz,0000000000c,0000000.000s, 016.7C,00002195
2015-12-22 12:33:00 r, 00.00m,0000563016Hz,0000000000c,0000000.000s, 017.0C,00002195
2015-12-22 12:42:58 r, 00.00m,0000563003Hz,0000000000c,0000000.000s, 017.0C,00002195
2015-12-22 12:52:59 r, 00.00m,0000563124Hz,0000000000c,0000000.000s, 017.4C,00002195
2015-12-22 13:03:00 r, 00.00m,0000563106Hz,0000000000c,0000000.000s, 017.4C,00002195
2015-12-22 13:12:58 r, 00.00m,0000563064Hz,0000000000c,0000000.000s, 017.7C,00002195
2015-12-22 13:22:59 r, 00.00m,0000563138Hz,0000000000c,0000000.000s, 017.4C,00002195
2015-12-22 13:32:59 r, 00.00m,0000563086Hz,0000000000c,0000000.000s, 017.4C,00002195
2015-12-22 13:42:58 r, 00.00m,0000563011Hz,0000000000c,0000000.000s, 017.4C,00002195
2015-12-22 13:52:59 r, 00.00m,0000563015Hz,0000000000c,0000000.000s, 017.4C,00002195
2015-12-22 14:02:59 r, 00.00m,0000563064Hz,0000000000c,0000000.000s, 017.0C,00002195
2015-12-22 14:12:58 r, 00.00m,0000563006Hz,0000000000c,0000000.000s, 017.0C,00002195
2015-12-22 14:22:58 r, 00.00m,0000563001Hz,0000000000c,0000000.000s, 016.7C,00002195
2015-12-22 14:32:58 r, 00.00m,0000562949Hz,0000000000c,0000000.000s, 016.4C,00002195
2015-12-22 14:42:59 r, 00.00m,0000562799Hz,0000000000c,0000000.000s, 016.4C,00002195
2015-12-22 14:52:58 r, 00.00m,0000562909Hz,0000000000c,0000000.000s, 016.4C,00002195
2015-12-22 15:02:58 r, 00.00m,0000562864Hz,0000000000c,0000000.000s, 016.4C,00002195
2015-12-22 15:12:59 r, 00.00m,0000562931Hz,0000000000c,0000000.000s, 016.4C,00002195
2015-12-22 15:22:58 r, 00.00m,0000562845Hz,0000000000c,0000000.000s, 016.4C,00002195
2015-12-22 15:32:58 r, 00.00m,0000562780Hz,0000000000c,0000000.000s, 016.4C,00002195
2015-12-22 15:42:59 r, 00.00m,0000562817Hz,0000000000c,0000000.000s, 016.1C,00002195
2015-12-22 15:52:59 r, 00.00m,0000438716Hz,0000000000c,0000000.000s, 015.7C,00002195
2015-12-22 16:02:58 r, 06.11m,0000322725Hz,0000000000c,0000000.000s, 015.7C,00002195
2015-12-22 16:13:00 r, 06.78m,0000173051Hz,0000000000c,0000000.000s, 015.7C,00002195
2015-12-22 16:22:58 r, 07.41m,0000097074Hz,0000000000c,0000000.000s, 015.4C,00002195
2015-12-22 16:32:59 r, 08.17m,0000047918Hz,0000000000c,0000000.000s, 015.4C,00002195
2015-12-22 16:43:00 r, 09.12m,0000020197Hz,0000000000c,0000000.000s, 015.1C,00002195
2015-12-22 16:52:58 r, 10.57m,0000005252Hz,0000000000c,0000000.000s, 015.1C,00002195
2015-12-22 17:03:00 r, 12.14m,0000001241Hz,0000000000c,0000000.000s, 015.1C,00002195
2015-12-22 17:12:59 r, 13.51m,0000000351Hz,0000000000c,0000000.000s, 015.1C,00002195
2015-12-22 17:22:58 r, 14.21m,0000000183Hz,0000000000c,0000000.000s, 015.1C,00002195
2015-12-22 17:32:58 r, 14.48m,0000000144Hz,0000000000c,0000000.000s, 015.1C,00002195
2015-12-22 17:42:59 r, 14.56m,0000000134Hz,0000000000c,0000000.000s, 015.1C,00002195
2015-12-22 17:52:58 r, 14.45m,0000000148Hz,0000000000c,0000000.000s, 015.1C,00002195
2015-12-22 18:02:59 r, 14.20m,0000000186Hz,0000000000c,0000000.000s, 015.1C,00002195
2015-12-22 18:12:59 r, 13.95m,0000000234Hz,0000000000c,0000000.000s, 015.1C,00002195
2015-12-22 18:22:58 r, 13.94m,0000000236Hz,0000000000c,0000000.000s, 014.8C,00002195
2015-12-22 18:32:59 r, 13.84m,0000000258Hz,0000000000c,0000000.000s, 014.8C,00002195
2015-12-22 18:42:58 r, 13.75m,0000000282Hz,0000000000c,0000000.000s, 014.8C,00002195
2015-12-22 18:52:58 r, 13.69m,0000000297Hz,0000000000c,0000000.000s, 014.8C,00002195
2015-12-22 19:03:00 r, 13.66m,0000000305Hz,0000000000c,0000000.000s, 014.8C,00002195
2015-12-22 19:12:59 r, 13.76m,0000000279Hz,0000000000c,0000000.000s, 014.8C,00002195
2015-12-22 19:22:58 r, 13.73m,0000000287Hz,0000000000c,0000000.000s, 014.5C,00002195
2015-12-22 19:33:00 r, 13.70m,0000000295Hz,0000000000c,0000000.000s, 014.8C,00002195
2015-12-22 19:42:58 r, 13.78m,0000000275Hz,0000000000c,0000000.000s, 014.5C,00002195
2015-12-22 19:52:58 r, 13.55m,0000000338Hz,0000000000c,0000000.000s, 014.5C,00002195
2015-12-22 20:02:59 r, 13.41m,0000000383Hz,0000000000c,0000000.000s, 014.5C,00002195
2015-12-22 20:12:59 r, 13.44m,0000000374Hz,0000000000c,0000000.000s, 014.1C,00002195
2015-12-22 20:23:00 r, 13.50m,0000000354Hz,0000000000c,0000000.000s, 014.1C,00002195
2015-12-22 20:32:58 r, 13.52m,0000000347Hz,0000000000c,0000000.000s, 014.1C,00002195
2015-12-22 20:43:00 r, 13.50m,0000000355Hz,0000000000c,0000000.000s, 014.1C,00002195
2015-12-22 20:52:58 r, 13.57m,0000000332Hz,0000000000c,0000000.000s, 014.1C,00002195
2015-12-22 21:02:59 r, 13.68m,0000000301Hz,0000000000c,0000000.000s, 014.1C,00002195
2015-12-22 21:12:58 r, 13.83m,0000000260Hz,0000000000c,0000000.000s, 014.1C,00002195
2015-12-22 21:22:59 r, 13.94m,0000000235Hz,0000000000c,0000000.000s, 014.1C,00002195
2015-12-22 21:32:58 r, 14.15m,0000000195Hz,0000000000c,0000000.000s, 014.1C,00002195
2015-12-22 21:42:58 r, 14.37m,0000000159Hz,0000000000c,0000000.000s, 014.5C,00002195
2015-12-22 21:52:58 r, 14.26m,0000000176Hz,0000000000c,0000000.000s, 014.1C,00002195
2015-12-22 22:03:01 r, 14.30m,0000000169Hz,0000000000c,0000000.000s, 014.5C,00002195
2015-12-22 22:12:59 r, 14.24m,0000000178Hz,0000000000c,0000000.000s, 014.5C,00002195
2015-12-22 22:22:58 r, 14.65m,0000000123Hz,0000003772c,0000000.008s, 014.5C,00002195
2015-12-22 22:32:59 r, 14.68m,0000000118Hz,0000003873c,0000000.008s, 014.8C,00002195
2015-12-22 22:42:59 r, 14.65m,0000000122Hz,0000003774c,0000000.008s, 014.8C,00002195
2015-12-22 22:52:58 r, 14.72m,0000000114Hz,0000004023c,0000000.009s, 014.8C,00002195
2015-12-22 23:02:59 r, 14.77m,0000000108Hz,0000004238c,0000000.009s, 014.8C,00002195
2015-12-22 23:12:59 r, 14.83m,0000000102Hz,0000004459c,0000000.010s, 014.8C,00002195
2015-12-22 23:22:58 r, 15.10m,0000000081Hz,0000005665c,0000000.012s, 014.8C,00002195
2015-12-22 23:32:58 r, 15.32m,0000000066Hz,0000006996c,0000000.015s, 014.8C,00002195
2015-12-22 23:43:00 r, 15.16m,0000000075Hz,0000006045c,0000000.013s, 014.8C,00002195
2015-12-22 23:52:58 r, 15.12m,0000000079Hz,0000005821c,0000000.013s, 014.8C,00002195
